Theta_e
319 321 325 327 328 329 329 330 330 330 329 329 328 328 327 326 325 324 323 322 323 324 325 325 325 325 325 325 325 326 326 326 326 325 325 326 326 326 326 327 327 327 328 325 318 313 312 313 314 314 313 314 317 320 319 320 323 325 330 329 326 330 329 328 328 325 326 322 319 320 321 322 320 318 317 317 319 320 324 328 331 335 337 337 335 334 335 336
318 319 324 326 328 329 329 330 330 330 329 329 328 328 327 326 326 325 324 323 323 323 324 325 325 325 325 325 326 326 326 326 325 323 325 326 325 327 326 326 327 328 328 320 314 313 316 313 312 314 313 313 317 318 319 321 321 327 331 327 330 336 327 321 321 321 323 320 318 320 321 321 321 318 318 319 318 321 324 323 330 341 339 335 335 335 335 335
318 318 323 325 327 328 329 329 329 329 328 328 328 327 327 327 326 326 325 324 323 323 324 324 324 324 325 325 325 326 326 324 324 324 325 326 326 326 325 325 326 326 325 319 313 314 315 312 311 314 313 313 316 317 320 320 320 327 326 325 335 332 321 318 317 319 321 319 319 320 320 321 320 318 318 319 318 320 323 323 331 340 340 338 335 334 335 334
318 318 320 324 326 327 328 329 329 329 328 327 327 327 327 327 327 326 325 324 324 323 323 324 324 324 324 324 324 326 325 325 326 326 326 326 326 325 324 324 323 320 320 317 312 313 314 312 312 313 313 316 317 315 320 321 319 322 322 326 331 322 317 319 316 317 319 318 320 320 320 321 319 318 318 318 318 318 319 321 328 337 339 338 336 334 334 334
318 319 319 321 324 326 327 328 328 328 328 327 327 327 327 327 327 326 326 325 324 324 323 324 324 323 323 323 325 325 325 329 329 326 326 325 326 326 325 324 320 316 316 314 310 312 314 312 314 317 319 320 316 314 318 320 319 319 321 325 323 318 318 317 316 317 317 318 319 320 320 320 318 317 319 318 319 319 318 318 322 333 338 337 335 334 333 334
317 319 319 319 321 324 327 328 328 328 328 327 327 327 327 327 327 327 326 325 325 324 324 323 323 323 322 323 325 324 326 330 326 321 324 325 325 325 326 323 315 313 313 312 310 312 314 315 318 323 328 327 316 313 314 314 318 319 321 322 318 318 319 316 317 318 317 318 319 319 319 318 317 317 318 318 319 319 318 317 319 330 336 335 334 334 334 333
316 318 319 319 319 322 326 327 327 328 328 327 327 327 327 327 327 326 326 325 325 325 324 324 323 322 322 323 324 323 325 328 321 319 320 323 326 326 327 320 311 312 312 311 312 312 314 320 320 319 328 331 319 315 314 312 317 319 319 319 316 317 318 316 317 317 318 319 318 319 317 317 319 318 317 317 318 317 319 318 316 327 335 334 334 334 334 333
314 316 319 320 319 319 324 327 327 328 328 327 327 326 327 326 326 326 325 325 325 325 324 324 323 322 323 323 323 323 325 326 322 320 317 321 326 326 326 317 309 312 312 313 312 312 314 319 317 318 326 327 317 315 313 311 315 318 318 318 316 315 315 315 316 316 317 317 317 318 318 318 318 317 317 317 317 316 321 322 319 328 335 334 335 334 333 333
311 313 316 319 320 318 320 325 327 327 327 327 326 326 326 325 326 326 325 325 324 325 324 323 323 321 323 322 323 325 326 323 322 320 316 320 325 325 324 316 310 311 312 313 312 312 316 317 317 320 322 318 313 312 310 313 317 318 318 318 317 314 314 314 316 316 316 317 316 318 317 316 315 315 317 317 317 319 323 329 328 331 335 335 335 333 332 332
310 313 314 316 321 320 319 324 327 326 326 327 326 325 326 325 325 326 325 325 324 324 324 324 323 321 322 322 323 326 325 323 322 319 314 319 325 323 321 318 312 310 311 312 312 313 317 318 315 315 317 315 314 312 310 314 318 317 317 318 317 315 314 314 315 315 316 316 316 318 316 315 314 314 316 316 317 321 325 330 332 333 334 334 334 333 332 332
311 313 315 316 320 321 320 324 326 325 325 326 325 324 325 325 325 325 324 324 324 324 324 324 322 321 321 321 324 325 323 322 323 320 315 319 325 321 319 319 315 311 311 311 312 314 315 315 312 314 317 315 312 311 312 313 313 315 317 316 315 315 315 314 315 315 315 315 315 318 315 314 314 315 318 318 318 322 326 328 330 332 333 333 333 332 331 331
312 313 316 316 320 321 321 324 325 325 324 324 325 324 324 324 324 324 324 324 323 323 324 323 321 321 321 321 324 323 321 322 323 321 316 318 323 320 320 322 316 311 311 311 311 314 314 313 312 316 318 314 311 311 312 312 311 314 316 315 315 314 315 315 315 315 315 315 315 316 315 315 316 316 319 318 316 320 324 325 326 328 329 331 332 331 331 331
312 313 316 316 320 322 321 324 324 324 324 324 324 323 324 324 323 323 323 323 323 323 323 321 319 320 320 321 322 319 318 321 323 321 316 317 319 318 319 319 314 311 311 312 312 314 315 313 312 315 314 312 312 310 310 312 312 314 315 315 316 314 315 316 315 315 315 315 316 314 315 320 318 316 317 315 314 317 321 323 322 323 325 327 329 331 332 331
313 313 316 317 320 322 320 323 325 324 324 323 323 323 324 323 323 323 323 323 323 323 322 320 319 319 320 320 318 317 317 318 321 318 315 317 318 316 318 316 314 312 311 313 314 314 315 314 313 312 311 310 311 311 310 312 313 315 315 316 318 317 319 318 314 316 316 314 314 313 316 323 322 316 315 315 314 316 319 321 321 320 320 324 327 330 332 330
313 314 316 317 321 323 321 324 325 324 323 323 323 324 323 323 323 323 323 323 322 322 320 318 318 318 319 319 315 315 318 318 319 317 314 317 317 315 316 316 314 312 311 312 314 314 314 314 312 311 310 311 311 311 310 312 314 314 314 317 318 318 320 318 314 316 317 315 313 312 316 320 319 316 314 314 315 315 316 318 320 320 318 321 326 328 330 329
313 314 317 318 321 324 323 324 325 323 323 323 323 323 323 323 322 322 322 322 321 319 317 318 319 318 319 318 314 315 318 319 319 317 315 315 316 315 314 314 312 311 311 311 312 313 312 311 311 311 310 310 311 311 311 313 316 315 314 319 320 317 318 317 315 316 316 315 313 312 316 318 316 314 312 313 314 315 316 316 318 319 318 319 324 327 330 330
314 315 318 319 321 323 324 325 324 323 323 323 323 323 322 322 322 321 321 321 320 317 315 317 318 317 319 315 313 315 315 316 318 317 316 314 315 314 313 312 310 309 310 310 310 311 310 310 311 311 311 311 311 312 312 313 316 316 313 316 320 317 316 317 316 316 315 315 314 313 315 318 316 313 313 314 314 314 315 315 316 318 318 318 322 326 328 330
315 316 318 320 321 322 324 324 323 323 323 323 323 322 322 321 321 320 320 319 317 315 314 315 316 321 323 314 312 315 312 314 316 316 315 313 313 313 312 311 308 309 309 309 310 310 309 310 311 312 312 311 311 311 312 314 316 318 315 313 316 315 315 317 317 316 316 314 315 314 313 317 317 314 314 314 314 315 315 315 314 315 317 318 321 325 327 328
315 317 319 321 322 322 323 323 323 323 323 322 322 321 320 319 319 319 317 316 314 314 316 316 317 324 325 316 312 313 313 314 314 314 313 312 312 311 311 310 309 309 310 311 311 310 311 312 311 312 312 311 311 310 311 314 315 318 318 314 314 314 314 317 317 316 315 314 315 315 313 315 316 315 315 314 314 315 315 315 314 314 315 317 320 323 324 325
316 318 320 322 322 322 323 323 323 323 321 321 320 319 319 319 320 319 316 315 314 315 316 315 318 321 318 315 312 312 313 313 312 312 312 311 311 310 309 309 309 310 311 313 313 311 312 313 312 312 312 311 310 310 311 313 313 313 315 315 314 315 314 316 317 315 314 315 315 315 314 314 314 314 316 315 314 315 315 314 314 315 314 315 318 320 322 323
318 319 320 322 323 322 322 323 323 322 321 320 318 318 319 319 321 319 316 316 314 314 314 313 317 318 314 313 312 312 313 313 314 313 311 311 310 310 310 309 310 311 311 313 313 311 311 313 313 311 311 311 310 311 311 311 311 310 313 316 314 315 316 315 315 314 313 314 315 316 314 315 315 315 315 314 314 315 315 314 314 314 314 314 316 317 319 318
319 320 321 322 323 322 323 323 322 320 319 318 317 318 318 317 318 317 316 316 315 313 314 313 314 315 313 313 312 313 313 314 316 315 311 311 310 310 311 309 310 311 311 312 312 311 311 312 312 310 310 311 311 311 311 311 311 312 314 316 316 317 317 315 314 315 313 313 316 317 315 315 316 315 314 314 315 315 313 313 313 314 315 314 314 315 316 315
320 320 321 322 323 322 322 322 320 319 318 318 317 317 316 316 316 315 315 316 315 314 313 312 313 314 313 313 313 314 314 314 316 315 311 311 311 311 311 309 310 311 311 311 312 312 312 311 311 311 310 311 311 310 311 311 311 314 314 314 318 318 316 316 315 314 313 313 314 316 316 316 316 315 315 315 315 315 313 313 313 314 315 316 315 315 316 316
320 321 321 322 322 322 322 321 319 318 318 317 317 316 316 315 315 315 314 315 316 314 312 312 313 313 313 313 313 314 314 314 315 313 311 311 311 311 310 309 309 310 310 310 312 312 312 312 311 312 311 310 311 311 311 311 311 316 318 317 320 319 317 317 316 314 313 313 314 314 315 318 317 314 315 315 315 313 313 313 313 314 315 315 316 315 315 316
321 321 322 322 322 321 320 319 318 317 318 317 316 315 315 315 315 315 314 316 315 312 312 312 312 313 313 313 313 313 313 313 314 312 311 311 310 310 310 309 309 310 310 311 312 312 312 312 312 313 311 310 312 311 313 313 312 315 320 321 320 320 320 318 318 318 314 313 316 313 314 323 325 319 315 313 313 312 312 315 314 314 314 314 315 315 315 316
321 321 322 322 321 320 319 319 317 317 317 316 315 315 315 315 315 314 314 317 316 312 312 313 313 313 313 313 312 313 314 314 313 311 311 311 310 310 310 310 310 310 310 311 312 314 313 310 311 313 313 314 314 314 316 316 313 313 317 321 322 323 325 321 319 321 318 315 315 312 314 322 323 319 318 314 313 313 312 314 314 312 313 314 314 314 315 317
321 321 322 321 320 319 319 318 317 317 317 316 315 315 315 314 314 314 316 318 318 313 312 313 312 313 313 312 312 313 316 314 312 311 312 311 311 310 311 311 310 310 310 311 314 314 312 310 312 314 315 316 314 313 316 316 315 316 319 324 325 324 327 326 321 322 322 318 316 318 317 316 315 316 320 318 314 315 312 312 314 312 313 314 314 314 316 319
322 321 322 321 319 319 319 317 316 317 317 315 315 315 315 314 314 315 318 319 318 313 313 312 311 313 313 312 312 313 314 314 314 313 311 311 311 310 311 311 311 312 311 312 314 313 312 313 314 315 316 316 314 315 319 317 315 319 323 327 326 324 330 330 325 322 320 316 320 324 317 314 321 326 325 319 315 317 317 314 315 315 315 316 316 317 318 320
321 321 321 320 319 318 318 317 316 317 315 315 315 315 315 314 314 316 317 317 315 312 313 312 311 312 312 312 312 312 312 313 315 313 311 312 311 310 312 310 311 314 313 314 316 316 314 313 314 315 314 315 318 323 325 320 315 320 324 326 327 330 331 327 327 326 317 314 324 329 319 313 321 330 325 316 314 319 320 318 315 314 316 316 317 317 318 319
320 320 320 319 318 317 317 316 316 315 315 314 315 315 314 313 314 317 318 316 313 312 312 312 312 312 312 311 311 312 313 313 313 312 312 312 311 310 311 311 312 318 322 322 321 318 312 310 314 317 314 316 320 320 321 321 318 320 324 325 324 328 331 331 334 329 316 318 330 331 323 314 315 326 324 315 318 320 317 317 316 316 317 315 317 318 319 322
319 319 319 318 317 316 317 316 315 315 314 314 314 314 314 315 316 317 317 315 313 313 311 312 313 311 311 311 311 312 313 313 312 312 313 312 311 311 311 311 313 320 323 322 319 316 312 310 314 316 313 315 319 317 317 320 320 322 327 325 318 321 332 336 332 323 316 324 331 324 319 315 315 324 325 318 320 318 316 317 316 320 323 319 320 322 323 327
319 319 318 317 317 316 317 316 315 315 314 315 314 313 314 316 317 317 315 313 314 313 312 314 314 311 310 311 312 312 313 313 312 312 313 312 312 311 311 313 313 315 316 317 319 317 314 314 315 315 312 314 320 319 316 318 321 323 323 319 316 319 323 324 324 322 322 324 321 316 316 318 317 319 320 317 317 315 315 317 319 326 328 323 321 323 324 327
319 318 317 316 317 316 316 315 315 315 314 314 313 313 316 317 318 317 313 313 314 313 313 314 313 311 310 311 312 312 313 313 312 312 312 313 312 311 313 316 315 316 318 318 320 318 318 319 316 314 313 312 317 316 315 318 319 318 317 315 321 323 316 315 321 321 321 321 317 313 315 319 318 318 318 316 314 314 315 319 325 327 326 324 323 324 326 326
318 317 316 316 316 316 316 315 314 314 314 313 313 314 316 317 317 315 312 313 313 312 312 314 313 311 311 312 312 312 315 314 311 312 312 313 313 311 313 314 314 319 322 319 317 318 320 320 317 315 313 313 316 316 318 320 317 318 320 317 321 325 320 320 323 322 321 321 316 311 316 322 320 317 319 317 314 314 317 322 325 322 322 326 324 324 327 326
317 317 316 315 316 316 315 315 314 314 313 313 313 315 317 317 316 313 312 312 312 312 313 313 313 312 312 313 311 312 317 315 311 312 313 312 312 311 312 311 311 317 319 315 314 315 316 317 318 316 314 314 316 317 319 318 316 320 321 319 320 324 329 328 325 328 329 322 317 314 319 326 321 315 316 315 314 314 314 317 319 319 320 322 322 323 324 325
316 315 315 315 314 315 315 315 314 313 312 313 314 316 316 315 314 313 312 311 311 312 313 313 314 313 313 313 312 312 316 316 312 312 313 312 312 312 312 311 312 313 314 313 315 315 313 315 316 316 314 313 314 316 318 316 317 320 318 322 325 322 328 326 316 318 319 318 321 317 317 323 318 315 317 314 314 315 313 314 315 315 318 319 321 324 324 324
315 314 314 314 314 314 315 314 314 312 312 313 315 316 314 313 315 314 312 310 311 312 313 314 314 314 313 313 312 313 315 315 313 312 313 312 312 312 311 312 312 312 312 313 314 315 317 316 314 316 315 312 312 315 317 315 318 319 318 322 323 316 322 327 318 314 313 317 323 316 315 321 318 320 325 316 314 318 315 315 314 313 318 321 323 326 326 325
314 314 314 314 314 314 314 314 313 311 313 314 316 316 313 312 315 314 311 310 311 312 313 314 314 313 313 312 311 313 314 314 312 312 312 312 313 313 311 311 312 312 313 313 312 315 321 320 314 314 315 314 315 316 316 314 313 317 319 319 320 318 319 322 319 319 316 315 321 318 316 320 318 322 326 316 317 322 316 315 315 313 317 320 322 327 326 324
314 315 315 313 313 314 313 314 312 311 313 315 316 315 312 313 315 313 310 310 311 313 313 313 313 312 312 312 312 313 314 313 312 312 312 312 314 314 311 311 313 312 312 314 315 317 320 321 317 314 314 315 317 317 318 316 311 315 317 314 318 321 321 321 319 322 323 318 322 322 316 322 326 326 324 316 316 321 315 316 317 314 315 317 322 329 328 324
315 315 315 313 313 314 313 313 312 311 313 314 315 315 312 314 316 312 310 311 311 312 313 313 312 312 312 312 312 313 313 313 312 312 313 312 312 313 311 311 313 313 313 316 319 316 315 320 320 315 312 314 317 318 320 318 313 316 316 313 316 315 316 321 320 323 326 322 324 320 317 334 340 325 319 316 314 318 317 316 320 319 317 318 322 330 328 324
315 315 314 312 312 313 313 313 313 312 313 314 313 315 313 314 314 311 311 312 313 315 314 312 311 311 312 312 313 313 313 313 312 312 315 313 311 313 312 311 313 312 313 317 320 319 318 319 320 316 314 318 320 318 317 317 315 315 315 314 316 314 316 319 317 320 321 320 326 322 317 336 339 319 317 317 315 319 317 315 323 325 323 324 326 328 327 325
315 314 314 312 312 312 313 315 314 312 313 314 314 316 316 314 313 312 312 312 315 318 314 311 312 312 312 312 313 314 314 313 312 313 316 313 312 315 314 312 313 312 313 318 320 322 322 320 320 318 317 320 319 314 313 315 317 315 314 316 315 316 319 318 317 321 318 315 323 320 315 328 329 317 318 319 317 319 315 314 322 324 323 326 328 327 326 326
315 314 313 312 311 313 315 316 314 312 314 316 315 317 318 314 312 313 314 313 316 318 313 311 312 312 313 313 313 314 313 313 314 314 316 315 312 318 318 313 313 312 313 319 320 321 322 320 320 318 316 318 321 317 314 314 315 315 315 316 316 316 317 320 324 326 322 316 317 315 314 326 334 324 321 322 320 318 316 315 317 317 319 324 326 327 327 326
314 313 313 312 311 313 315 316 314 312 313 314 315 318 319 316 314 313 313 314 316 316 312 312 313 313 314 314 313 314 313 314 315 314 318 316 313 320 322 315 314 314 313 316 317 317 320 319 319 319 317 319 323 322 317 314 314 317 318 317 317 318 316 318 322 319 319 322 320 316 315 322 336 330 320 320 319 316 316 316 315 316 320 324 325 325 325 324
314 313 313 311 310 313 315 314 313 312 312 314 316 319 319 318 319 318 314 316 320 318 314 313 314 315 316 314 314 314 313 316 317 315 318 318 315 320 322 317 314 313 313 317 316 318 324 322 318 320 319 318 319 319 317 317 316 318 321 318 318 319 315 317 321 316 317 324 320 317 315 318 328 325 316 316 317 315 315 314 314 316 319 323 325 323 323 322
314 314 313 311 311 312 313 314 314 311 311 314 316 318 317 317 320 321 317 318 322 323 321 318 316 316 316 314 315 314 313 316 318 316 317 320 320 320 319 318 316 314 319 322 317 319 326 321 315 317 316 314 316 318 318 319 317 316 319 318 317 319 317 320 325 320 320 322 319 318 317 315 318 318 316 318 317 316 316 315 315 315 316 320 324 323 322 321
314 313 313 312 312 312 312 314 314 310 311 314 315 315 317 317 318 318 317 319 320 322 321 317 316 316 315 314 315 314 314 318 319 317 317 320 320 316 316 319 318 317 321 320 316 321 323 319 316 316 315 315 320 322 318 316 315 315 317 317 317 319 319 319 320 317 319 320 317 317 318 315 314 315 318 320 317 317 319 318 318 315 314 319 322 322 322 320
312 313 313 314 314 314 313 313 313 311 310 313 313 315 316 317 317 316 318 319 319 320 320 317 316 316 315 315 315 314 315 318 318 317 318 318 317 315 316 317 315 317 318 314 317 324 320 317 318 315 316 322 324 322 318 316 316 315 316 317 316 318 319 318 317 316 318 318 313 314 317 315 314 314 317 318 318 318 317 316 315 312 313 319 320 321 321 320
313 314 314 314 314 314 313 312 312 311 310 312 314 314 316 317 316 317 319 319 318 320 320 316 316 316 315 315 315 314 315 317 316 316 316 315 315 317 317 314 313 317 317 312 316 319 315 318 319 315 317 322 324 321 318 317 316 315 316 317 315 317 318 317 316 315 315 316 314 314 316 315 314 316 317 318 320 318 316 316 316 313 314 318 320 321 321 320
312 313 312 313 313 312 312 312 312 311 310 312 313 314 314 316 316 316 319 318 317 319 319 316 317 317 316 315 315 314 314 316 317 316 314 313 314 315 316 315 314 315 314 312 313 313 314 317 317 315 316 318 321 323 319 318 318 316 318 319 316 316 317 315 316 315 314 315 314 314 317 315 315 317 318 320 321 316 314 318 319 315 315 317 319 319 319 319
306 308 309 312 313 312 311 312 312 311 310 311 313 314 313 314 315 316 317 319 319 319 318 317 317 316 316 316 316 315 315 318 318 314 313 314 313 314 317 317 314 313 314 315 314 314 317 318 314 315 317 315 317 323 321 320 320 318 320 322 319 317 316 314 315 314 314 315 315 315 316 313 314 318 319 320 320 315 315 319 317 314 314 317 320 318 317 317
304 308 312 314 314 312 311 312 311 311 311 311 311 312 312 313 315 315 315 319 322 318 316 317 316 315 316 316 316 316 317 319 317 313 313 312 313 317 320 315 312 314 315 315 316 316 318 319 316 316 317 315 316 321 323 321 319 315 317 320 318 316 314 313 315 315 313 314 315 314 313 312 315 319 316 316 318 317 317 317 315 314 315 317 318 316 315 314
Wind_Speed
34 31 34 40 42 44 45 45 46 44 43 42 41 41 40 40 40 39 37 36 32 29 28 26 24 21 20 18 17 16 14 13 11 11 10 11 15 12 7 9 11 12 9 7 7 8 9 11 6 8 17 9 1 1 2 3 1 2 3 2 2 2 4 4 5 6 5 6 7 6 4 8 5 2 2 3 8 7 6 7 4 7 8 8 17 28 32 32
32 31 34 41 44 45 47 46 45 45 44 43 42 41 40 40 40 40 38 37 34 31 29 27 25 23 21 19 17 15 13 10 8 9 16 16 13 13 11 9 9 14 13 9 9 9 7 7 7 5 9 5 2 2 0 1 1 3 2 2 3 4 4 3 3 5 6 7 8 6 5 7 7 5 4 4 6 7 7 4 4 8 8 11 21 28 30 32
28 29 32 40 46 47 48 47 45 45 44 43 42 41 40 39 39 40 39 37 36 33 31 28 26 24 21 19 16 14 11 6 3 10 21 21 15 13 12 10 10 14 13 11 11 11 11 8 10 6 4 4 3 2 1 2 1 2 2 1 5 4 3 5 3 3 6 10 10 8 5 6 6 5 3 5 8 7 7 5 4 7 7 9 14 23 28 29
26 31 32 36 44 49 49 47 46 45 44 44 43 42 40 39 38 39 39 38 37 34 33 30 27 24 22 19 16 14 10 3 3 13 23 23 20 18 14 12 14 14 13 15 14 13 16 13 12 8 3 3 4 4 1 3 2 1 3 4 5 2 1 4 5 4 4 11 11 8 6 6 5 4 5 8 8 4 6 8 9 11 12 12 11 18 24 25
26 31 33 34 37 45 49 46 46 46 45 45 43 42 41 40 39 38 39 38 37 35 33 31 28 25 22 19 17 15 9 1 5 13 20 23 24 23 18 15 17 16 16 18 17 16 17 14 9 6 3 1 4 4 3 4 2 1 3 6 5 1 1 4 5 5 1 7 8 8 7 5 4 3 6 10 7 5 6 8 11 14 15 15 15 18 20 21
27 29 33 36 32 38 48 46 45 47 46 45 44 43 41 40 38 38 39 38 38 35 34 32 29 26 22 20 19 15 8 2 2 3 10 21 26 25 21 19 19 19 19 19 20 18 15 11 6 4 2 1 3 5 7 5 3 2 5 4 3 2 2 3 4 6 1 7 8 7 6 5 6 3 5 8 6 6 6 7 11 16 19 21 20 18 17 17
29 29 32 37 34 35 44 46 44 46 47 46 45 43 42 40 38 37 37 38 38 36 34 32 30 27 24 23 18 9 4 6 5 3 2 16 27 25 23 22 21 20 19 20 19 14 11 9 5 4 2 1 1 5 8 7 3 5 5 2 2 0 2 1 2 5 3 7 5 6 7 6 8 5 3 4 4 5 3 5 14 20 22 22 18 16 16 18
31 32 32 36 38 37 40 45 46 46 47 47 45 44 42 40 38 37 36 36 36 36 34 33 31 29 27 25 14 2 4 13 12 4 5 10 26 26 26 25 21 20 20 20 19 14 12 11 8 4 2 1 3 4 7 9 3 5 5 2 0 1 1 1 2 5 5 4 3 7 6 4 6 4 4 5 5 5 2 6 13 17 18 18 15 15 15 17
32 34 35 36 40 40 38 43 48 46 46 47 46 45 43 41 40 37 36 35 36 36 34 34 31 30 30 22 10 3 10 16 10 4 5 10 26 30 29 28 23 21 19 18 19 18 11 8 9 4 3 2 5 7 8 6 3 4 5 3 3 2 2 1 2 3 3 2 4 8 5 0 2 2 3 6 7 5 4 11 12 14 14 13 13 14 15 15
34 35 38 36 40 42 40 43 49 48 46 46 46 45 43 42 40 38 36 35 35 36 35 34 32 31 29 17 8 6 10 14 12 4 2 11 28 31 30 30 26 21 17 14 16 16 10 9 10 6 5 2 5 7 7 4 3 5 2 4 5 5 2 0 1 0 2 2 4 7 4 0 3 0 3 5 7 6 8 11 10 13 12 12 11 12 16 17
35 36 39 38 41 44 42 43 46 50 49 46 45 45 43 42 41 38 36 35 35 35 35 34 33 33 28 16 9 7 4 10 17 10 1 12 30 33 31 30 26 22 17 13 14 16 17 17 14 8 3 1 3 6 6 4 5 4 4 4 2 4 1 1 3 1 1 1 3 7 4 2 3 0 6 7 8 8 11 11 10 11 10 10 11 10 13 16
37 38 39 39 43 46 44 44 44 48 50 47 45 45 43 42 42 39 36 36 35 34 34 34 35 33 23 11 8 8 4 10 19 14 6 15 29 32 29 28 26 23 19 14 11 17 24 22 14 6 2 2 3 4 3 3 6 4 3 1 1 3 1 2 3 2 2 1 2 6 3 3 2 6 8 7 8 8 10 11 10 10 9 9 10 9 9 14
38 39 41 41 45 48 46 46 45 45 48 47 45 44 43 43 41 39 37 35 34 34 32 34 37 29 17 6 7 10 6 10 19 15 10 19 28 26 25 27 25 20 19 18 14 17 23 21 14 5 3 2 3 4 4 4 3 4 1 1 0 3 3 5 4 3 3 0 1 3 2 5 7 10 8 6 8 8 9 9 8 8 8 8 9 8 9 13
41 42 44 42 46 51 48 48 49 48 47 46 46 45 43 43 41 39 37 35 34 32 31 36 34 22 11 3 6 12 9 11 18 16 17 25 26 20 19 22 21 16 13 16 18 20 23 20 13 5 2 2 4 5 6 4 1 2 2 2 1 1 4 5 3 6 4 1 2 4 3 5 7 8 6 7 8 10 9 8 8 7 7 7 8 9 8 11
44 44 46 45 48 53 52 51 51 50 49 47 47 46 44 42 41 39 36 34 32 32 35 36 25 12 6 2 5 13 12 12 17 20 22 28 26 17 16 19 17 14 10 12 18 22 24 20 11 5 3 2 3 5 4 3 2 1 3 3 1 3 4 6 2 6 5 1 2 4 3 5 7 6 5 8 7 9 9 7 7 8 7 7 7 8 8 9
48 48 49 49 49 54 57 54 51 50 49 49 48 47 46 44 41 38 36 34 31 35 36 26 14 8 5 2 7 15 13 11 18 22 23 28 29 20 19 19 14 13 10 9 15 18 19 14 5 3 3 2 4 4 3 3 3 1 3 3 2 4 3 3 3 5 5 3 0 2 2 3 5 4 4 6 8 9 8 8 8 8 8 8 7 7 7 8
51 51 51 52 50 53 60 57 53 53 51 50 51 48 45 43 42 38 35 33 30 34 27 11 6 5 2 3 9 14 11 12 21 24 23 26 28 25 23 15 10 13 11 8 11 12 11 7 2 2 3 3 4 4 3 4 3 2 1 2 3 4 4 2 3 4 4 5 4 3 2 5 5 3 4 5 7 8 8 8 9 8 8 8 7 7 7 8
54 54 54 54 52 53 59 58 54 54 54 54 52 50 47 44 43 37 33 31 26 24 14 4 5 4 3 8 9 13 16 18 25 25 23 21 22 27 26 14 10 14 10 5 5 6 4 3 3 3 4 5 5 5 5 4 4 2 3 3 4 2 4 4 3 3 6 5 5 5 3 8 8 5 5 6 5 8 8 8 8 8 9 8 8 8 8 9
56 56 57 55 54 55 57 59 55 52 55 56 54 53 47 39 36 32 30 29 18 12 7 7 12 6 4 13 11 14 22 25 24 22 21 19 20 25 20 14 13 11 8 5 3 4 4 2 4 5 6 7 6 6 5 3 5 5 5 5 5 4 3 4 4 3 5 5 5 7 6 10 10 6 6 7 5 6 7 7 6 7 8 8 8 8 9 9
58 59 60 56 57 57 57 60 58 57 56 55 57 46 30 22 16 14 17 19 13 7 5 12 17 3 3 10 14 19 23 22 18 16 21 23 23 20 10 9 10 6 6 7 4 3 4 4 5 6 6 7 7 5 6 7 9 4 1 3 6 6 4 3 3 5 1 4 5 8 7 8 8 7 7 6 5 6 7 7 8 8 7 8 9 10 11 10
61 62 61 58 59 59 60 60 60 65 62 61 55 26 14 18 12 15 17 12 16 9 3 14 18 4 3 14 23 26 18 11 9 9 21 25 22 15 5 6 9 5 6 7 5 2 3 5 6 6 6 6 7 6 6 9 11 6 2 3 5 6 4 3 3 3 2 1 4 4 5 8 8 8 8 4 6 8 10 9 10 10 9 8 9 11 11 9
64 63 61 61 59 62 64 59 61 67 64 62 42 11 12 15 11 27 25 8 15 11 4 15 20 7 5 20 31 33 16 7 7 5 15 20 13 8 4 6 8 6 5 6 5 3 4 6 6 8 8 7 7 8 8 10 10 6 2 3 3 4 3 2 3 2 3 1 3 2 3 8 9 8 7 5 8 9 11 11 11 11 10 9 9 10 10 9
64 63 62 61 60 66 68 64 66 62 56 52 29 10 15 15 21 37 23 7 11 8 3 13 17 6 6 15 26 32 18 11 13 9 16 17 8 6 8 7 8 7 6 7 7 5 4 5 7 8 9 9 8 8 10 9 7 5 2 3 3 3 4 2 3 2 3 1 1 2 1 6 7 6 6 7 9 8 8 11 10 10 11 12 11 10 10 11
64 63 61 63 62 64 69 72 67 53 48 42 24 15 19 26 41 42 17 7 7 5 5 12 12 7 7 9 19 23 12 10 13 13 19 17 6 5 9 8 9 8 7 9 9 7 5 5 7 9 9 11 9 7 10 8 5 6 5 4 3 3 4 2 2 2 3 3 1 3 4 6 5 6 8 7 8 7 6 8 9 9 10 10 9 9 11 12
66 63 61 65 65 65 71 67 51 47 46 30 19 22 24 33 47 40 16 5 4 3 6 10 7 7 9 10 14 12 8 6 8 14 20 18 11 7 5 6 7 8 9 10 9 7 7 5 6 8 9 11 9 7 8 8 5 5 5 6 6 6 4 5 5 4 4 3 2 2 1 6 5 5 9 7 6 8 6 8 11 12 11 9 8 10 10 10
67 64 64 65 66 73 64 36 31 46 37 17 23 31 31 39 43 34 14 4 3 4 7 11 8 11 14 10 9 9 9 5 5 15 21 20 16 9 6 5 3 7 10 8 6 4 3 2 5 8 9 10 9 6 7 8 7 4 5 5 6 7 7 7 7 4 2 3 3 2 4 5 6 5 8 6 6 10 8 9 12 11 11 10 10 11 10 10
68 66 70 65 67 73 44 16 31 42 21 16 33 36 38 43 33 21 9 2 5 4 7 8 6 13 14 10 11 10 7 5 4 11 17 17 13 5 7 7 3 6 7 5 3 3 4 4 4 7 7 9 9 6 6 7 7 4 4 5 8 8 8 7 7 4 2 3 3 3 4 2 5 6 8 5 6 10 9 9 11 10 11 11 11 10 9 10
71 70 71 69 74 69 40 30 38 27 18 30 38 37 42 38 20 10 6 4 5 4 6 5 5 13 10 8 11 4 4 11 8 8 11 13 9 3 7 10 8 9 7 7 7 3 4 8 8 9 7 6 7 6 7 8 6 5 5 6 7 7 8 7 6 3 1 2 2 4 2 2 5 7 6 4 4 8 9 10 11 11 11 11 11 11 10 9
73 74 72 77 74 55 43 47 37 20 29 42 37 35 36 23 9 6 3 6 4 4 8 7 8 11 7 8 8 3 8 10 6 7 7 6 4 1 6 9 9 9 3 4 8 3 3 7 8 10 8 6 6 4 6 8 5 4 4 6 5 4 5 5 5 4 3 1 4 6 2 2 5 6 4 3 3 7 8 8 9 10 11 11 11 11 10 8
72 75 76 77 58 37 39 40 30 29 38 44 40 36 28 11 6 7 6 6 4 4 6 5 8 12 12 12 7 6 10 4 3 9 6 3 1 1 3 4 6 7 3 4 5 3 2 1 1 3 5 5 5 3 1 4 5 5 6 7 7 5 4 4 3 4 3 2 6 7 4 4 3 5 4 4 5 6 7 7 7 8 9 10 10 9 8 7
70 73 78 71 47 40 36 21 27 41 41 46 42 31 19 4 1 9 9 6 6 5 6 6 9 12 17 16 9 9 9 4 7 12 8 4 3 3 4 4 4 5 4 3 2 2 4 2 0 0 2 2 5 4 4 1 3 6 5 5 5 3 4 4 4 3 2 5 6 5 3 5 4 5 5 5 6 6 7 7 8 9 8 8 7 6 6 6
70 74 77 61 47 48 36 25 42 49 45 50 37 17 11 4 1 5 5 6 6 7 10 12 14 14 18 18 10 9 8 5 10 14 12 7 4 7 7 6 6 5 5 5 3 2 4 1 2 3 2 2 6 4 4 5 4 5 5 6 5 1 3 1 2 0 3 5 4 3 1 3 5 7 8 9 10 10 8 7 8 8 6 5 5 5 5 5
73 76 68 51 45 45 39 42 53 50 48 47 25 6 7 8 8 6 6 7 7 10 13 15 18 18 19 16 9 8 8 6 9 11 11 8 6 7 4 4 7 7 5 5 4 3 1 5 3 2 2 1 5 5 2 0 1 4 6 6 5 3 3 2 3 1 3 4 3 3 2 3 3 5 11 13 14 13 8 7 7 7 7 6 6 6 5 5
74 70 56 44 42 43 45 51 53 52 48 32 14 8 9 9 9 8 8 7 7 12 13 14 18 17 14 12 9 9 7 5 9 11 9 8 8 9 7 7 8 7 6 5 4 5 4 3 3 2 1 1 3 4 5 6 3 4 5 5 6 5 4 4 3 3 4 3 3 3 1 3 3 4 8 10 11 9 4 4 3 5 6 6 5 4 4 6
69 58 47 39 37 43 52 54 55 54 38 16 10 11 11 10 9 9 9 6 8 11 12 16 18 15 11 8 8 9 5 4 8 9 9 10 10 11 9 8 9 7 7 7 4 4 6 3 4 2 1 1 3 3 2 6 3 3 3 5 5 5 5 3 3 5 4 1 1 2 2 4 4 6 8 6 6 5 2 2 1 4 4 4 5 5 6 6
57 43 38 34 34 45 53 54 56 50 27 11 10 10 10 11 9 10 10 9 13 15 17 18 14 12 10 5 6 10 5 5 9 7 6 9 9 11 10 7 8 9 9 8 4 3 6 1 5 4 3 0 3 3 1 4 3 1 3 4 5 3 7 5 2 2 4 2 3 2 3 5 3 7 9 4 4 6 4 4 3 5 5 3 5 7 6 6
39 29 25 26 35 48 53 55 53 40 19 9 11 10 8 7 5 7 9 10 15 18 19 15 10 12 12 7 9 13 8 8 10 8 6 7 7 10 12 8 8 11 9 7 3 3 6 1 5 1 0 3 2 1 2 1 3 4 3 5 3 2 4 4 2 1 2 3 4 1 4 5 2 3 7 5 4 8 7 6 6 6 6 6 7 7 6 6
28 23 15 22 43 51 50 54 45 24 11 9 11 9 4 2 4 8 11 13 16 18 16 12 9 11 14 13 12 15 14 11 10 8 8 7 5 9 14 9 7 10 9 7 5 2 5 3 4 1 2 4 3 3 1 2 1 4 4 3 3 3 2 1 3 2 2 3 4 3 4 3 3 4 5 5 6 9 9 6 6 7 8 8 7 7 6 5
24 15 6 22 46 51 50 48 30 11 7 10 11 8 4 3 5 11 16 16 16 16 14 11 10 9 12 14 12 13 13 12 12 8 7 8 4 7 15 9 5 10 9 7 6 3 4 5 2 3 2 1 3 2 4 3 2 0 1 1 2 2 4 3 3 4 3 3 4 3 2 3 5 6 5 8 9 8 8 6 6 8 8 7 6 6 6 6
14 7 4 26 44 50 51 36 15 8 10 10 7 6 7 5 5 13 19 17 13 9 9 13 13 11 10 11 12 13 10 10 13 8 5 8 4 6 13 11 8 11 9 7 6 4 3 4 3 2 3 1 1 2 6 6 3 1 2 3 2 1 2 2 1 3 4 3 3 2 2 5 6 4 6 8 8 6 7 6 7 7 6 6 7 6 6 7
8 6 5 28 44 49 42 19 8 10 7 7 5 3 7 6 7 14 19 18 11 3 5 13 13 12 12 11 12 12 9 9 12 8 4 9 7 4 9 12 11 11 8 6 6 5 2 3 5 2 1 3 4 4 4 5 4 3 4 6 6 3 4 3 3 1 2 3 4 4 3 7 6 3 5 6 5 5 5 5 6 6 6 7 7 7 8 7
7 7 8 33 50 47 29 10 10 10 4 6 5 2 6 6 8 14 15 16 10 3 6 10 10 11 11 10 11 11 8 8 11 9 4 7 9 4 7 12 14 13 10 5 4 4 3 5 5 2 3 5 6 5 3 3 2 2 3 4 4 4 5 5 6 3 1 1 2 3 3 7 6 4 4 5 5 5 4 3 4 5 6 6 6 6 6 5
6 7 15 40 52 39 19 9 10 6 2 4 0 1 3 5 10 13 12 13 10 6 7 8 10 12 10 10 12 12 10 7 9 9 4 5 8 4 7 15 15 14 11 5 5 4 4 5 5 2 1 3 5 5 2 1 1 1 4 2 3 3 1 4 5 4 3 4 2 2 5 7 5 4 4 5 5 5 5 4 4 5 5 6 6 5 4 4
7 6 9 28 39 27 12 10 12 9 7 4 2 1 1 3 9 12 14 13 8 8 9 8 11 11 8 11 14 15 15 8 6 7 4 6 7 2 5 16 18 15 10 7 8 5 2 3 5 5 2 4 5 5 4 1 1 2 3 3 4 3 2 3 2 2 2 5 5 5 6 6 5 5 4 5 5 5 6 5 4 5 5 5 5 4 4 5
10 5 3 11 19 14 6 4 8 10 10 9 9 7 3 2 2 6 13 11 4 7 9 6 9 9 8 11 11 12 14 7 6 7 2 4 4 3 1 13 19 15 9 8 10 6 4 5 5 7 7 5 5 4 4 3 2 1 3 5 7 7 7 5 2 2 3 4 5 5 7 6 5 6 5 6 5 4 6 5 4 5 5 5 5 4 5 5
10 5 4 5 3 5 3 1 3 7 9 9 8 5 5 7 1 2 8 7 2 6 8 5 9 10 9 14 12 11 11 4 4 7 6 6 3 2 1 8 11 9 7 11 12 7 4 3 5 8 10 10 8 4 5 10 8 7 8 9 8 8 8 7 4 4 5 2 3 8 10 8 6 5 6 7 5 5 6 5 5 6 5 5 5 5 5 5
6 7 11 10 6 5 4 1 4 8 10 10 8 6 8 11 6 1 3 2 3 7 6 5 11 12 13 17 14 12 11 5 6 9 8 5 3 1 2 4 4 3 7 11 10 6 5 4 7 7 6 5 6 5 8 13 12 13 11 10 9 8 8 8 7 8 5 4 6 11 9 8 8 6 7 8 6 6 7 7 7 6 5 5 5 5 5 4
3 6 9 9 9 12 11 11 15 15 14 12 7 7 10 12 11 8 3 1 3 6 5 5 13 18 20 19 14 11 10 6 7 10 6 4 5 4 4 5 4 2 4 7 4 4 6 5 6 6 3 2 7 8 10 11 10 10 11 12 11 10 11 12 13 12 9 7 13 14 10 11 9 7 10 9 7 7 8 7 5 4 4 5 5 5 6 6
3 4 3 1 2 8 10 12 17 18 17 12 5 8 14 16 14 10 3 4 5 4 5 10 14 16 19 19 14 12 13 11 9 7 5 5 6 5 4 3 2 3 4 6 2 2 5 4 4 6 4 2 7 10 11 10 8 7 9 11 10 11 14 16 17 16 13 13 16 11 9 13 9 8 10 9 7 6 3 1 3 5 6 6 7 7 7 7
3 4 6 3 2 4 7 8 10 12 10 8 5 7 13 17 17 10 4 8 12 6 4 13 16 14 16 18 15 14 17 15 13 10 9 10 8 5 4 5 3 2 4 5 2 1 2 3 4 6 5 3 5 9 10 10 9 7 7 8 10 11 13 14 15 12 8 10 13 6 7 12 6 6 8 8 5 2 3 3 6 7 7 7 8 7 8 7
1 0 5 7 6 8 11 10 11 11 9 8 7 7 12 16 18 12 3 3 11 11 9 15 16 11 11 15 15 15 15 14 16 17 17 17 14 8 4 5 8 8 5 4 4 2 3 3 2 5 6 6 5 7 8 7 7 4 6 10 13 13 12 12 12 9 8 10 11 7 9 12 4 6 8 8 4 4 6 8 8 6 7 9 9 9 9 9
1 1 3 5 5 9 13 11 10 12 11 11 10 8 10 13 12 13 7 2 2 7 11 17 18 11 9 13 15 14 12 12 14 13 11 12 11 6 5 9 13 13 9 6 4 3 5 6 3 6 7 5 2 6 7 7 6 4 10 13 15 13 10 8 8 9 12 12 9 10 12 8 4 6 8 5 5 6 8 8 7 6 7 8 10 11 11 10
Wind_Direction
236 240 233 223 213 207 203 199 197 196 196 197 197 196 195 195 195 195 195 194 194 192 190 190 189 188 187 187 187 186 187 186 186 186 198 219 215 214 205 201 208 202 200 188 150 104 71 63 74 318 329 343 236 255 211 191 119 79 97 150 235 212 199 218 204 193 159 160 180 197 179 139 138 140 139 53 76 92 81 62 52 50 51 95 126 142 149 153
237 239 235 225 213 206 203 200 197 195 196 196 196 196 195 195 194 193 193 193 194 193 192 191 189 188 187 186 184 186 184 184 193 210 221 225 219 218 210 207 209 201 195 162 138 127 100 62 60 5 334 346 268 287 151 242 113 134 132 152 226 206 215 264 195 174 148 148 163 177 180 153 156 158 144 117 120 114 96 62 63 78 69 98 121 137 145 153
235 236 237 226 214 205 200 199 198 195 194 195 196 196 195 194 194 192 190 192 192 193 192 191 190 187 187 185 184 183 174 164 198 237 232 224 221 220 209 211 198 188 193 167 143 130 119 89 65 59 338 335 294 309 346 270 234 172 130 157 243 219 254 330 0 209 170 145 148 171 174 160 175 161 136 132 142 145 138 142 112 116 131 126 130 140 146 156
230 231 238 231 220 210 201 197 196 195 194 195 196 195 194 193 193 191 188 189 190 191 192 191 189 186 184 182 179 171 150 107 239 237 233 223 220 220 208 203 185 170 177 159 135 130 122 88 55 51 9 328 307 312 251 229 228 172 145 191 250 249 265 310 333 313 175 146 151 165 139 151 187 154 140 136 137 182 185 178 164 155 156 148 147 148 150 159
231 231 236 233 225 212 204 200 197 195 193 194 195 194 193 191 192 190 186 187 188 189 190 190 188 184 179 173 166 156 137 76 239 232 234 225 220 218 208 195 181 166 163 147 123 129 124 91 65 54 32 321 324 326 249 232 184 182 229 206 241 284 193 281 316 329 215 139 136 144 141 161 163 136 157 147 152 207 202 191 172 159 160 159 159 156 156 162
233 233 233 233 230 213 204 200 196 195 193 193 193 193 191 190 190 188 186 185 185 187 188 188 186 180 173 163 157 157 161 222 200 193 234 225 216 210 201 190 176 165 160 144 125 129 122 89 77 88 64 313 327 304 278 270 168 199 272 210 246 259 175 285 332 326 316 134 137 148 160 142 122 165 178 148 176 210 203 199 169 161 165 160 156 158 161 167
235 233 232 230 229 219 208 201 196 194 192 192 191 191 189 187 188 187 185 182 182 185 184 185 182 175 165 154 154 166 197 237 226 55 347 217 209 199 189 182 168 163 164 148 130 130 121 108 104 107 119 338 290 266 288 297 196 192 262 250 289 354 161 262 355 332 27 126 153 141 139 141 138 169 170 147 197 202 218 196 163 159 158 154 155 163 170 173
237 235 233 229 226 222 215 203 197 194 190 191 190 189 188 185 186 185 183 181 180 181 182 182 178 171 164 155 152 137 224 232 236 285 343 202 196 188 177 175 166 164 171 162 150 141 122 128 147 125 115 258 273 269 297 308 283 205 233 232 252 53 275 293 51 0 29 87 104 111 119 167 164 152 159 184 198 196 156 121 142 147 149 156 163 168 173 177
240 236 232 230 224 222 219 204 196 194 189 189 188 187 186 183 183 184 182 180 178 179 180 179 176 170 165 158 140 151 218 224 228 284 314 190 184 180 175 175 169 164 173 174 164 152 133 142 165 147 117 207 285 301 295 293 280 232 215 174 139 124 270 314 61 21 16 33 84 105 98 163 214 156 175 196 189 197 122 108 126 138 150 164 167 170 174 179
238 235 232 230 222 218 220 209 198 192 188 187 186 185 184 181 181 182 181 179 177 177 177 176 173 167 162 152 138 192 226 221 219 256 323 181 180 177 176 177 171 168 169 165 166 161 146 147 149 125 103 149 259 275 274 252 262 261 183 129 135 145 202 278 107 4 10 10 84 109 118 301 297 205 209 216 182 163 118 119 135 143 158 169 168 177 177 181
237 235 229 226 219 214 215 211 198 188 187 187 185 184 182 179 178 180 179 178 177 176 175 173 169 165 162 156 166 198 218 202 209 219 187 179 181 177 177 177 173 174 168 155 172 167 147 142 127 108 112 110 252 263 268 271 310 286 131 84 92 126 163 106 122 192 48 32 114 109 114 312 348 243 216 208 179 155 130 139 150 152 166 171 172 182 181 188
236 233 227 223 216 211 211 209 195 184 186 187 185 183 180 177 175 176 177 176 176 175 173 170 167 164 160 164 194 194 184 192 199 203 198 184 180 177 178 179 178 178 170 157 170 163 148 143 123 108 157 73 320 291 283 288 318 289 157 102 307 65 11 193 148 180 123 172 194 120 104 287 249 230 231 191 168 151 136 151 162 164 170 171 176 180 187 194
233 232 226 219 211 207 207 205 196 186 184 183 182 180 177 176 173 173 175 173 174 172 170 167 164 163 157 176 210 189 193 191 190 191 178 176 175 174 179 180 177 176 174 163 157 159 156 147 130 132 164 91 296 286 309 298 282 268 251 138 235 22 298 230 173 140 130 224 277 128 177 262 234 233 233 181 156 138 140 164 172 175 175 173 178 178 190 192
231 230 223 217 208 202 201 200 195 186 181 180 179 176 174 172 170 170 171 170 170 168 166 164 161 160 158 177 186 184 198 184 182 177 162 169 170 168 178 180 174 177 186 171 156 158 160 152 142 160 205 189 257 286 312 310 256 227 228 198 136 105 267 267 181 138 145 253 47 109 191 255 259 254 220 183 164 146 158 183 181 186 186 178 179 179 189 191
228 225 219 215 205 198 197 195 190 182 178 177 175 172 171 169 166 166 167 166 166 164 162 162 159 148 149 211 176 171 175 168 171 166 162 170 167 165 179 179 177 180 184 171 163 162 159 154 154 183 222 203 243 278 297 312 307 203 192 239 176 155 263 305 235 162 157 230 64 116 204 261 274 270 205 177 171 160 168 188 190 192 193 187 186 184 189 195
224 218 214 209 201 195 192 190 187 180 176 175 172 169 166 163 161 160 161 160 160 162 158 159 160 140 145 196 165 161 162 167 169 163 166 175 174 172 169 164 164 168 161 153 165 166 158 155 157 184 191 189 215 240 284 313 304 265 157 226 203 167 238 308 269 214 160 133 110 163 203 255 272 265 206 172 168 167 170 187 195 196 198 192 190 190 191 197
217 212 208 204 199 191 186 186 184 178 175 171 165 162 159 157 156 153 153 154 156 158 152 146 144 129 128 151 158 168 167 166 168 164 165 175 179 170 156 147 141 149 139 127 151 155 154 163 161 164 183 195 195 187 228 253 266 309 122 204 237 180 180 223 277 250 159 148 198 194 206 249 272 261 220 198 168 165 177 192 196 196 199 195 193 194 194 197
209 205 202 199 197 189 181 180 180 176 171 165 158 155 152 149 147 142 141 142 140 142 135 84 127 130 225 189 177 173 162 157 162 164 164 171 176 166 156 148 140 136 127 125 149 147 150 177 169 165 185 193 196 185 196 213 192 199 169 184 257 235 182 199 236 217 164 167 198 176 218 259 270 265 233 238 193 175 193 199 196 198 198 198 194 195 198 200
202 200 197 194 192 189 180 176 176 171 163 156 149 144 139 134 134 132 135 137 133 140 152 178 171 170 201 183 174 158 157 156 156 160 162 165 165 160 152 143 142 136 142 174 180 164 154 137 174 184 191 194 205 196 180 209 205 191 181 182 209 228 229 217 238 251 166 164 204 187 206 240 246 248 239 246 218 193 214 213 206 206 201 201 198 201 204 203
197 194 192 190 188 187 181 175 173 167 157 146 139 135 130 130 127 126 142 155 175 188 153 170 177 170 77 147 139 136 148 150 147 157 160 160 154 145 133 130 140 145 159 166 164 176 152 149 200 198 193 195 204 195 169 218 244 240 213 206 210 213 245 260 268 297 142 154 216 207 215 241 243 244 239 226 198 211 231 224 221 217 203 201 201 205 206 208
191 189 189 187 185 185 179 173 168 162 155 146 143 143 148 156 155 158 163 172 195 204 82 162 185 237 106 140 138 136 138 132 124 154 158 157 151 140 142 148 146 174 174 148 135 125 146 182 210 196 191 193 197 197 181 219 244 262 259 219 235 222 220 275 273 294 353 143 245 236 232 258 255 245 245 197 173 216 222 210 219 219 213 208 204 209 210 215
185 186 185 183 183 181 174 168 163 158 152 149 153 171 162 155 144 151 152 143 186 203 37 163 192 259 144 148 148 143 135 117 117 169 169 160 158 150 162 159 150 172 167 136 128 130 174 210 212 192 195 196 197 198 197 223 235 250 259 173 228 229 183 298 315 339 22 132 277 321 232 253 258 250 248 194 190 222 217 206 211 208 210 214 208 210 212 218
182 182 181 182 181 175 169 163 160 155 152 154 162 184 158 139 125 134 128 81 166 202 7 167 192 226 154 153 154 147 141 149 152 187 184 167 173 166 150 152 154 156 158 157 156 157 183 219 209 195 199 201 206 204 202 222 232 236 233 151 219 211 153 241 289 348 24 115 192 17 319 267 272 273 265 220 212 230 220 213 219 207 206 212 209 206 204 208
177 177 178 179 176 170 164 159 157 156 158 160 160 162 150 137 135 131 110 69 146 215 229 186 187 186 172 152 156 154 145 153 156 172 179 169 162 158 152 151 151 157 173 171 161 163 189 204 192 191 200 204 210 210 202 208 227 236 212 168 197 193 163 183 172 105 16 2 75 60 0 297 263 258 260 240 224 236 225 215 230 231 223 222 219 216 209 206
174 173 172 171 170 164 157 154 156 159 160 158 152 155 148 141 141 135 113 86 139 204 192 184 194 187 171 148 157 157 122 135 164 166 172 170 156 145 160 159 153 170 177 164 153 170 208 199 169 181 198 204 208 211 200 190 202 246 227 189 182 175 148 121 121 92 47 333 299 94 19 290 283 257 249 247 240 243 228 208 222 230 231 232 230 226 220 216
171 170 167 165 162 156 152 152 158 156 154 157 160 158 150 146 144 137 115 65 165 159 150 169 195 180 167 159 156 134 120 154 185 162 167 175 169 150 157 167 143 170 169 156 156 182 209 175 165 185 189 193 204 216 205 181 176 230 243 189 152 135 123 131 140 108 109 241 293 106 162 260 310 294 253 247 245 249 238 220 226 226 226 227 224 225 218 215
169 168 165 163 157 154 152 150 153 153 154 167 161 154 151 153 150 136 106 56 178 161 145 166 196 171 167 172 158 141 151 158 132 163 173 177 177 144 152 167 132 163 163 137 179 221 157 150 185 193 181 186 198 211 208 174 156 218 238 148 128 128 138 151 143 120 173 212 331 39 134 221 291 276 265 253 239 259 256 239 239 231 227 228 226 226 216 211
168 165 163 161 159 158 155 148 152 157 162 161 159 155 156 159 158 132 116 167 167 136 144 154 167 161 157 164 161 147 151 139 131 187 190 176 178 121 158 176 156 164 171 153 187 250 146 166 192 186 176 194 198 199 191 161 150 229 215 143 137 143 147 143 126 108 77 116 303 304 133 174 269 274 295 300 253 271 266 242 239 232 227 228 228 225 217 213
166 164 162 160 160 159 153 151 154 153 151 155 160 159 156 155 148 115 150 185 143 118 146 139 153 159 145 155 165 137 140 144 147 174 174 178 195 110 160 178 152 149 160 150 173 212 191 186 190 178 183 198 190 192 184 165 167 209 159 106 87 87 101 103 114 112 59 78 240 257 199 178 270 282 306 321 269 260 257 246 241 235 231 228 228 226 220 217
164 162 160 158 156 151 147 150 150 143 147 155 159 156 149 141 137 151 190 186 129 140 156 142 166 164 153 157 160 153 151 142 119 138 148 176 179 60 125 129 115 118 56 51 131 201 274 232 183 166 190 187 149 125 166 178 163 135 102 72 58 40 46 57 66 95 86 273 247 244 212 175 267 281 249 231 234 230 236 255 258 247 242 235 235 233 221 214
163 160 158 157 156 149 145 142 147 146 148 154 154 147 141 111 132 165 179 161 120 148 156 148 162 156 158 163 159 162 153 114 133 145 162 174 143 163 139 118 114 109 102 82 82 333 2 53 230 331 205 150 103 79 16 6 123 107 101 96 87 20 16 25 5 57 147 252 257 255 206 166 221 264 245 243 263 248 224 236 250 250 252 245 236 221 202 191
162 159 158 158 155 152 151 150 153 151 150 153 150 143 142 132 204 173 160 148 149 170 163 159 165 163 166 167 155 155 142 125 157 157 162 164 162 183 170 164 169 145 162 171 130 24 12 291 270 351 270 161 116 109 22 6 31 86 121 123 117 65 30 29 292 205 217 246 258 279 242 193 226 251 259 267 275 267 235 222 231 226 228 231 209 188 183 178
160 159 158 156 152 152 152 150 152 152 153 154 150 145 154 157 180 173 150 167 176 172 165 163 166 164 165 163 150 149 138 141 168 161 157 151 156 196 218 200 169 145 167 174 123 109 348 304 309 21 303 220 141 154 144 127 64 125 147 140 140 136 100 203 245 257 255 259 270 290 276 255 269 260 251 248 256 258 238 229 228 199 189 193 193 189 191 199
158 156 154 152 151 152 150 149 152 154 156 157 153 155 162 168 178 165 161 180 163 155 160 157 155 156 162 162 157 156 136 136 164 154 151 152 160 194 217 213 181 129 116 147 151 159 168 258 259 176 232 266 170 180 158 149 150 173 172 145 157 166 148 187 208 198 227 263 291 299 257 201 201 248 240 234 259 268 226 230 227 184 192 182 178 194 204 223
155 152 148 146 147 150 150 151 154 156 157 162 157 159 168 172 176 170 169 166 144 147 150 146 146 150 162 165 162 164 142 142 168 154 158 173 178 189 195 198 185 144 132 162 183 163 156 206 274 266 280 154 182 246 138 121 136 230 164 126 176 187 146 148 179 178 173 149 276 251 231 213 203 273 274 250 265 271 226 273 133 162 206 177 176 209 214 228
149 145 143 142 145 151 152 154 156 158 161 163 160 172 180 177 177 170 163 154 152 150 144 147 150 152 161 159 163 175 156 141 165 164 175 183 185 194 192 187 181 165 156 159 159 147 150 219 314 334 351 74 180 261 312 129 168 192 131 171 216 171 119 120 181 157 114 156 250 201 235 286 314 293 291 285 259 261 264 276 230 209 235 229 223 226 220 221
139 137 138 140 147 153 156 157 158 160 163 166 174 182 177 176 166 141 140 141 146 145 142 151 162 160 163 163 172 179 159 142 166 172 175 177 189 199 194 194 186 175 168 153 155 180 148 148 319 21 150 269 209 174 340 1 144 130 160 204 205 121 107 113 148 59 85 205 265 195 206 276 310 268 308 344 291 268 261 252 251 250 238 232 239 240 235 220
129 131 128 142 152 156 158 160 160 160 167 177 183 177 146 164 147 124 131 137 141 147 148 155 168 169 171 170 175 176 162 160 176 173 165 177 208 195 183 193 191 177 173 148 151 190 131 117 309 316 194 274 351 87 162 304 174 153 190 194 129 148 202 120 150 178 175 213 267 277 234 248 207 221 296 301 251 253 255 242 241 242 225 221 231 240 248 230
127 122 106 150 153 156 158 160 158 155 177 185 184 174 160 193 162 134 140 144 147 153 155 160 163 171 179 170 163 169 170 170 170 169 174 182 218 196 177 180 185 178 176 152 157 186 127 126 248 286 264 270 10 67 176 222 296 24 36 62 83 146 178 173 167 161 162 205 243 285 305 260 227 214 228 242 243 247 251 241 230 233 228 223 223 223 229 215
132 107 110 153 152 154 156 155 154 171 190 188 179 170 171 181 153 141 147 149 151 157 161 165 161 159 172 166 156 164 171 166 166 175 185 172 187 205 182 174 170 174 171 149 153 164 118 112 168 283 328 145 176 217 184 183 186 138 136 175 187 83 129 159 182 138 137 169 198 222 272 264 252 213 204 237 254 248 236 230 232 241 240 232 223 213 213 210
137 106 125 155 151 150 149 144 168 186 191 174 157 166 172 162 139 150 154 150 150 153 147 159 162 156 158 159 160 165 159 157 170 176 176 172 172 197 189 173 160 161 156 143 156 162 131 102 134 163 206 177 227 245 193 189 193 168 176 187 184 156 122 150 225 230 123 157 174 176 239 265 256 209 205 237 255 256 246 226 236 252 244 233 224 215 213 211
133 118 142 155 153 151 148 155 184 179 183 171 162 158 159 150 146 155 156 152 150 131 132 153 160 153 155 157 156 161 154 156 175 176 167 178 174 177 184 164 151 155 157 156 171 154 111 103 115 142 196 204 249 258 208 202 212 184 208 199 183 169 131 153 202 222 149 199 154 145 231 264 260 226 223 239 251 264 272 241 243 261 248 232 227 224 218 206
121 117 142 155 158 158 154 163 168 163 212 190 144 37 139 143 152 154 155 158 156 143 144 157 159 157 163 160 152 158 159 158 179 175 134 154 178 194 176 159 150 156 161 162 175 147 89 97 103 70 305 297 305 307 327 49 100 210 231 180 162 209 148 147 183 171 167 197 157 169 248 264 270 259 244 253 267 274 276 253 233 250 255 238 226 218 194 164
119 103 128 156 165 168 164 165 167 175 189 169 132 174 128 122 154 159 161 162 159 152 152 157 163 162 160 158 159 164 164 161 181 178 125 147 180 219 162 161 157 162 175 181 177 165 114 132 123 99 62 354 345 332 315 275 149 211 230 177 170 194 127 116 150 105 188 214 162 174 243 252 266 292 284 272 288 286 272 257 225 229 240 236 227 208 175 150
128 104 69 152 169 178 182 174 168 170 169 162 165 173 146 106 155 163 158 159 147 138 143 149 150 136 128 144 152 163 167 160 165 177 137 137 165 355 146 173 169 170 183 172 158 145 134 160 152 138 154 181 196 218 228 192 166 215 210 187 187 184 167 166 138 117 227 232 153 180 239 247 273 309 300 282 297 289 269 267 249 238 233 229 218 191 177 166
136 123 113 124 155 200 213 18 133 161 166 163 166 171 147 138 97 33 140 156 176 126 123 133 132 116 132 147 144 164 178 150 125 163 156 145 167 328 243 175 169 163 148 142 144 129 112 171 191 177 183 186 181 184 146 133 150 200 200 185 187 188 174 156 133 174 199 178 175 221 236 235 248 272 273 275 277 265 267 267 254 251 244 234 214 188 183 180
139 150 156 147 146 188 225 332 149 175 183 173 167 169 159 149 147 95 100 158 186 136 109 131 147 145 156 156 150 167 172 128 119 154 149 139 153 58 65 91 95 105 123 137 148 130 117 196 207 184 193 182 148 144 142 144 170 196 190 184 190 184 166 161 192 208 163 123 235 240 230 228 233 231 246 260 257 248 254 243 232 233 231 226 205 178 165 160
149 162 169 159 155 173 191 195 186 184 184 180 165 147 151 151 156 160 133 53 169 149 117 150 169 166 162 158 153 159 158 134 148 159 144 130 137 104 50 51 44 10 111 130 139 111 128 199 203 159 168 171 137 146 157 160 177 188 184 190 190 178 173 183 210 212 167 177 233 235 225 233 231 218 234 239 224 227 237 231 218 205 212 210 184 164 158 159
127 130 156 108 141 167 169 172 175 176 177 176 161 152 160 161 162 161 129 110 153 179 156 162 174 168 160 158 152 156 168 165 163 167 141 127 140 121 92 103 61 12 86 120 118 88 137 193 189 141 136 150 143 154 165 162 163 176 190 195 185 184 192 198 212 215 196 211 235 237 246 252 234 208 229 235 227 232 233 162 157 184 205 195 175 173 176 179
133 143 161 159 149 130 105 111 148 167 178 179 173 173 168 164 162 158 135 147 161 184 178 162 166 161 159 162 159 170 183 170 155 161 147 136 150 154 145 164 162 69 90 128 137 47 124 184 175 127 126 192 176 163 167 164 160 168 190 192 183 191 206 213 222 223 208 236 253 271 286 272 237 182 222 241 237 202 126 164 198 205 202 181 172 186 191 192
224 243 163 160 154 140 137 146 160 167 182 192 187 180 173 172 166 152 119 162 164 167 167 155 151 146 154 166 169 176 179 160 152 163 160 155 163 167 158 168 156 137 128 147 151 118 115 159 158 116 145 221 214 160 156 138 120 144 202 201 190 192 205 215 220 212 196 227 250 260 262 259 209 162 219 232 204 177 195 212 215 212 197 179 181 196 199 197
333 40 105 123 125 146 158 161 164 173 188 192 187 179 169 171 167 150 137 7 90 149 155 149 145 144 158 175 183 178 165 149 148 156 153 146 146 134 126 150 154 150 154 161 153 140 142 151 159 148 165 231 250 132 122 89 93 216 227 202 190 194 200 206 222 221 209 211 222 230 242 242 149 180 226 217 181 211 230 225 217 215 206 194 194 198 200 199